When you browse on this site, cookies collect data to enhance your experience and personalize the content and advertising you see.
Visit our Privacy Policy to learn more. By continuing to use the site, you agree to this use of cookies and data.
  • In Hungary
  • List of Countries
  • For 7 days
  • Water Temperature
  • Weather Map
  • News
  • Weather Widgets
  • user-avatar
    Login

    Hourly Weather Storozhevsk

    Today, 19 September, Thursday

    Time Temperature Precipitation Wind Pressure Humidity
    00:00 +5°C° 0 mm 2 mps 737 mmHg 92%
    01:00 +5°C° 0 mm 2 mps 737 mmHg 91%
    02:00 +4°C° 0 mm 2 mps 737 mmHg 89%
    03:00 +4°C° 0 mm 2 mps 737 mmHg 88%
    04:00 +3°C° 0 mm 2 mps 737 mmHg 89%
    05:00 +3°C° 0 mm 2 mps 737 mmHg 91%
    06:00 +2°C° 0 mm 2 mps 737 mmHg 92%
    07:00 +4°C° 0 mm 2 mps 737 mmHg 84%
    08:00 +5°C° 0 mm 2 mps 737 mmHg 76%
    09:00 +5°C° 0 mm 3 mps 737 mmHg 68%
    10:00 +7°C° 0 mm 3 mps 737 mmHg 64%
    11:00 +8°C° 0 mm 3 mps 737 mmHg 60%
    12:00 +8°C° 0 mm 3 mps 737 mmHg 56%
    13:00 +8°C° 0 mm 3 mps 738 mmHg 56%
    14:00 +8°C° 0 mm 3 mps 738 mmHg 56%
    15:00 +7°C° 0 mm 3 mps 738 mmHg 56%
    16:00 +5°C° 0 mm 3 mps 739 mmHg 64%
    17:00 +5°C° 0 mm 2 mps 739 mmHg 71%
    18:00 +4°C° 0 mm 2 mps 739 mmHg 78%
    19:00 +4°C° 0 mm 2 mps 739 mmHg 80%
    20:00 +3°C° 0 mm 2 mps 740 mmHg 83%
    21:00 +3°C° 0 mm 2 mps 740 mmHg 85%
    22:00 +2°C° 0 mm 2 mps 740 mmHg 87%
    23:00 +2°C° 0 mm 2 mps 741 mmHg 89%

    Tomorrow, 20 September, Friday

    Time Temperature Precipitation Wind Pressure Humidity
    00:00 +1°C° 0 mm 2 mps 741 mmHg 91%
    01:00 +1°C° 0 mm 2 mps 741 mmHg 93%
    02:00 -1°C° 0 mm 2 mps 742 mmHg 94%
    03:00 -1°C° 0 mm 2 mps 742 mmHg 96%
    04:00 -1°C° 0 mm 2 mps 743 mmHg 96%
    05:00 -1°C° 0 mm 2 mps 743 mmHg 96%
    06:00 -1°C° 0 mm 2 mps 743 mmHg 97%
    07:00 +1°C° 0 mm 2 mps 743 mmHg 88%
    08:00 +2°C° 0 mm 3 mps 744 mmHg 79%
    09:00 +4°C° 0 mm 3 mps 744 mmHg 70%
    10:00 +4°C° 0 mm 3 mps 744 mmHg 64%
    11:00 +5°C° 0 mm 3 mps 744 mmHg 58%
    12:00 +6°C° 0 mm 4 mps 744 mmHg 52%
    13:00 +7°C° 0.1 mm 3 mps 744 mmHg 54%
    14:00 +7°C° 0.1 mm 3 mps 744 mmHg 56%
    15:00 +7°C° 0.1 mm 3 mps 744 mmHg 58%
    16:00 +4°C° 0 mm 3 mps 744 mmHg 66%
    17:00 +4°C° 0 mm 2 mps 744 mmHg 74%
    18:00 +2°C° 0 mm 2 mps 745 mmHg 82%
    19:00 +2°C° 0 mm 2 mps 745 mmHg 84%
    20:00 +2°C° 0 mm 2 mps 745 mmHg 86%
    21:00 +2°C° 0 mm 2 mps 745 mmHg 88%
    22:00 +1°C° 0 mm 2 mps 745 mmHg 91%
    23:00 +1°C° 0 mm 2 mps 744 mmHg 94%

    Day after tomorrow, 21 September, Saturday

    Time Temperature Precipitation Wind Pressure Humidity
    00:00 -1°C° 0 mm 2 mps 744 mmHg 97%
    01:00 -1°C° 0 mm 2 mps 744 mmHg 97%
    02:00 -1°C° 0 mm 2 mps 744 mmHg 97%
    03:00 -1°C° 0 mm 2 mps 744 mmHg 96%
    04:00 -1°C° 0 mm 2 mps 744 mmHg 97%
    05:00 -1°C° 0 mm 2 mps 744 mmHg 97%
    06:00 -1°C° 0 mm 2 mps 743 mmHg 97%
    07:00 0°C° 0 mm 3 mps 743 mmHg 88%
    08:00 +2°C° 0 mm 3 mps 743 mmHg 78%
    09:00 +3°C° 0 mm 3 mps 743 mmHg 69%
    10:00 +4°C° 0 mm 4 mps 743 mmHg 64%
    11:00 +5°C° 0 mm 4 mps 743 mmHg 58%
    12:00 +6°C° 0 mm 4 mps 743 mmHg 53%
    13:00 +6°C° 0 mm 4 mps 743 mmHg 53%
    14:00 +6°C° 0 mm 4 mps 743 mmHg 52%
    15:00 +6°C° 0 mm 4 mps 743 mmHg 52%
    16:00 +4°C° 0 mm 3 mps 742 mmHg 60%
    17:00 +4°C° 0 mm 2 mps 742 mmHg 68%
    18:00 +3°C° 0 mm 2 mps 742 mmHg 76%
    19:00 +2°C° 0 mm 2 mps 742 mmHg 81%
    20:00 +2°C° 0 mm 1 mps 742 mmHg 86%
    21:00 +1°C° 0 mm 1 mps 742 mmHg 91%
    22:00 +1°C° 0 mm 1 mps 742 mmHg 92%
    23:00 +1°C° 0 mm 1 mps 742 mmHg 92%

    22 September, Sunday

    Time Temperature Precipitation Wind Pressure Humidity
    00:00 0°C° 0 mm 1 mps 742 mmHg 93%
    01:00 0°C° 0 mm 1 mps 741 mmHg 94%
    02:00 0°C° 0 mm 1 mps 741 mmHg 94%
    03:00 0°C° 0 mm 1 mps 741 mmHg 95%
    04:00 0°C° 0 mm 1 mps 741 mmHg 92%
    05:00 0°C° 0 mm 1 mps 741 mmHg 90%
    06:00 0°C° 0 mm 0 mps 741 mmHg 88%
    07:00 +1°C° 0 mm 0 mps 741 mmHg 81%
    08:00 +3°C° 0 mm 0 mps 740 mmHg 74%
    09:00 +4°C° 0 mm 0 mps 740 mmHg 67%
    10:00 +5°C° 0 mm 0 mps 740 mmHg 64%
    11:00 +6°C° 0 mm 0 mps 740 mmHg 60%
    12:00 +7°C° 0 mm 0 mps 740 mmHg 57%
    13:00 +8°C° 0.1 mm 1 mps 740 mmHg 59%
    14:00 +7°C° 0.1 mm 1 mps 739 mmHg 60%
    15:00 +7°C° 0.1 mm 1 mps 739 mmHg 61%
    16:00 +5°C° 0 mm 1 mps 739 mmHg 68%
    17:00 +4°C° 0 mm 1 mps 739 mmHg 75%
    18:00 +3°C° 0 mm 1 mps 739 mmHg 82%
    19:00 +2°C° 0 mm 1 mps 739 mmHg 84%
    20:00 +2°C° 0 mm 1 mps 739 mmHg 86%
    21:00 +2°C° 0 mm 1 mps 739 mmHg 87%
    22:00 +2°C° 0 mm 1 mps 739 mmHg 91%
    23:00 +2°C° 0 mm 1 mps 739 mmHg 94%

    23 September, Monday

    Time Temperature Precipitation Wind Pressure Humidity
    00:00 +2°C° 0 mm 1 mps 739 mmHg 97%
    01:00 +1°C° 0 mm 1 mps 739 mmHg 96%
    02:00 +1°C° 0 mm 1 mps 739 mmHg 96%
    03:00 -1°C° 0 mm 2 mps 739 mmHg 96%
    04:00 0°C° 0 mm 1 mps 739 mmHg 96%
    05:00 0°C° 0 mm 1 mps 739 mmHg 95%
    06:00 0°C° 0 mm 1 mps 739 mmHg 95%
    07:00 +1°C° 0 mm 1 mps 739 mmHg 88%
    08:00 +1°C° 0 mm 2 mps 739 mmHg 81%
    09:00 +2°C° 0 mm 2 mps 738 mmHg 73%
    10:00 +3°C° 0 mm 2 mps 738 mmHg 68%
    11:00 +2°C° 0 mm 3 mps 738 mmHg 63%
    12:00 +3°C° 0 mm 3 mps 738 mmHg 59%
    13:00 +3°C° 0.1 mm 3 mps 738 mmHg 69%
    14:00 +2°C° 0.1 mm 3 mps 738 mmHg 79%
    15:00 +1°C° 0.1 mm 3 mps 738 mmHg 89%
    16:00 +1°C° 0.1 mm 3 mps 737 mmHg 91%
    17:00 +1°C° 0.1 mm 3 mps 737 mmHg 93%
    18:00 0°C° 0.1 mm 3 mps 737 mmHg 95%
    19:00 0°C° 0.1 mm 3 mps 737 mmHg 95%
    20:00 0°C° 0.1 mm 3 mps 737 mmHg 96%
    21:00 0°C° 0.1 mm 3 mps 736 mmHg 96%
    22:00 0°C° 0.2 mm 3 mps 736 mmHg 97%
    23:00 0°C° 0.2 mm 3 mps 736 mmHg 97%

    24 September, Tuesday

    Time Temperature Precipitation Wind Pressure Humidity
    00:00 0°C° 0.2 mm 3 mps 736 mmHg 97%
    01:00 0°C° 0.3 mm 3 mps 736 mmHg 97%
    02:00 0°C° 0.3 mm 3 mps 736 mmHg 97%
    03:00 0°C° 0.3 mm 3 mps 736 mmHg 97%
    04:00 0°C° 0.3 mm 3 mps 736 mmHg 97%
    05:00 0°C° 0.3 mm 3 mps 736 mmHg 97%
    06:00 +1°C° 0.3 mm 2 mps 736 mmHg 97%
    07:00 +1°C° 0.2 mm 2 mps 737 mmHg 97%
    08:00 +1°C° 0.2 mm 2 mps 737 mmHg 96%
    09:00 0°C° 0.2 mm 3 mps 737 mmHg 95%
    10:00 +2°C° 0.1 mm 2 mps 737 mmHg 93%
    11:00 +2°C° 0.1 mm 2 mps 738 mmHg 90%
    12:00 +3°C° 0.1 mm 2 mps 738 mmHg 88%
    13:00 +3°C° 0.2 mm 2 mps 739 mmHg 88%
    14:00 +2°C° 0.2 mm 3 mps 739 mmHg 88%
    15:00 +2°C° 0.2 mm 3 mps 739 mmHg 88%
    16:00 +1°C° 0 mm 3 mps 739 mmHg 89%
    17:00 +1°C° 0 mm 2 mps 740 mmHg 91%
    18:00 -1°C° 0 mm 2 mps 740 mmHg 93%
    19:00 +1°C° 0 mm 2 mps 740 mmHg 93%
    20:00 0°C° 0 mm 3 mps 740 mmHg 94%
    21:00 0°C° 0 mm 3 mps 740 mmHg 94%
    22:00 0°C° 0.1 mm 3 mps 740 mmHg 94%
    23:00 0°C° 0.1 mm 3 mps 740 mmHg 94%
    Show more